Du Bois, PA

7:43 PM EST on December 05, 2019 (GMT -0500)
Du Bois-Jefferson County

Weather History for KDUJ - October, 2019

Change the Weather History Date:

Sunday, October 6, 2019

  Actual Average Record
Temperature  
Mean Temperature 60 °F 52 °F  
Max Temperature 68 °F 62 °F 84 °F (2007)
Min Temperature 51 °F 42 °F 25 °F (1965)
Degree Days  
Heating Degree Days 6 13  
Month to date heating degree days 42 73  
Since 1 July heating degree days 145 319  
Cooling Degree Days 0 0  
Month to date cooling degree days 23 0  
Year to date cooling degree days 430 360  
Growing Degree Days 10 (Base 50)    
Moisture  
Dew Point 55 °F    
Average Humidity 84    
Maximum Humidity 93    
Minimum Humidity 76    
Precipitation  
Precipitation 0.22 in 0.11 in 0.66 in (1981)
Month to date precipitation 0.66 0.64  
Year to date precipitation 37.06 33.88  
Sea Level Pressure  
Sea Level Pressure 30.13 in    
Wind  
Wind Speed 7 mph ()    
Max Wind Speed 16 mph    
Max Gust Speed 20 mph    
Visibility 9.1 miles    
Events Rain    
T = Trace of Precipitation, MM = Missing Value Source: Averaged Metar Reports

Daily Weather History Graph

Daily Weather History Graph

Search for Another Location

Airport or City:

Astronomy

Oct. 06, 2019 Rise Set
Actual Time 7:17 AM EDT 6:49 PM EDT
Civil Twilight 6:49 AM EDT 7:17 PM EDT
Nautical Twilight 6:17 AM EDT 7:48 PM EDT
Astronomical Twilight 5:45 AM EDT 8:20 PM EDT
Moon 3:31 PM EDT 12:09 AM EDT
Length of Visible Light 12h 27m
Length of Day
11h 32m
First Quarter, 59% of the Moon is Illuminated
Oct 6
First Quarter
Oct 13
Full
Oct 21
Last Quarter
Oct 27
New
Nov 4
First Quarter

Hourly Weather History & Observations

Time (EDT) Temp. Dew Point Humidity Pressure Visibility Wind Dir Wind Speed Gust Speed Precip Events Conditions
12:53 AM 51.1 °F 44.1 °F 77% 30.15 in 10.0 mi SE 11.5 mph - N/A   Scattered Clouds
1:53 AM 52.0 °F 45.0 °F 77% 30.14 in 10.0 mi SE 10.4 mph - N/A   Mostly Cloudy
2:53 AM 52.0 °F 46.0 °F 80% 30.14 in 10.0 mi SE 10.4 mph - N/A   Partly Cloudy
3:53 AM 53.1 °F 46.0 °F 77% 30.12 in 10.0 mi SE 11.5 mph - N/A   Overcast
4:53 AM 52.0 °F 46.9 °F 83% 30.12 in 10.0 mi SE 8.1 mph - N/A   Partly Cloudy
5:53 AM 52.0 °F 46.9 °F 83% 30.12 in 10.0 mi SE 9.2 mph - N/A   Clear
6:53 AM 52.0 °F 48.0 °F 86% 30.14 in 10.0 mi SE 8.1 mph - N/A   Partly Cloudy
7:12 AM 53.1 °F 48.0 °F 83% 30.13 in 10.0 mi SE 9.2 mph - N/A   Mostly Cloudy
7:53 AM 54.0 °F 48.9 °F 83% 30.15 in 10.0 mi SE 8.1 mph - N/A   Overcast
8:53 AM 55.9 °F 50.0 °F 80% 30.15 in 10.0 mi SE 6.9 mph - N/A   Overcast
9:53 AM 57.9 °F 51.1 °F 78% 30.16 in 10.0 mi Variable 6.9 mph - N/A   Overcast
10:43 AM 59.0 °F 52.0 °F 78% 30.17 in 10.0 mi South 5.8 mph - N/A   Overcast
10:53 AM 59.0 °F 53.1 °F 81% 30.17 in 9.0 mi South 5.8 mph - N/A   Overcast
11:14 AM 60.1 °F 53.1 °F 78% 30.17 in 10.0 mi Variable 4.6 mph - N/A   Overcast
11:29 AM 60.1 °F 54.0 °F 80% 30.16 in 7.0 mi Variable 5.8 mph - 0.00 in Rain Light Rain
11:53 AM 59.0 °F 55.0 °F 87% 30.17 in 6.0 mi Variable 5.8 mph - 0.00 in Rain Light Rain
12:53 PM 62.1 °F 57.9 °F 86% 30.17 in 10.0 mi SSW 3.5 mph - 0.02 in   Overcast
1:20 PM 62.1 °F 57.9 °F 86% 30.16 in 10.0 mi South 6.9 mph - N/A   Overcast
1:53 PM 64.9 °F 60.1 °F 84% 30.14 in 10.0 mi South 6.9 mph - N/A   Scattered Clouds
2:53 PM 66.9 °F 59.0 °F 76% 30.12 in 10.0 mi SW 10.4 mph 18.4 mph N/A   Scattered Clouds
3:34 PM 66.0 °F 59.0 °F 78% 30.13 in 10.0 mi SSW 5.8 mph - N/A   Mostly Cloudy
3:53 PM 66.0 °F 59.0 °F 78% 30.12 in 10.0 mi SW 8.1 mph - N/A   Overcast
4:53 PM 64.9 °F 59.0 °F 81% 30.12 in 10.0 mi SW 8.1 mph - N/A   Overcast
5:53 PM 64.9 °F 59.0 °F 81% 30.12 in 10.0 mi Variable 5.8 mph - N/A   Overcast
6:13 PM 64.0 °F 60.1 °F 87% 30.13 in 10.0 mi Variable 5.8 mph - N/A   Overcast
6:53 PM 64.0 °F 60.1 °F 87% 30.11 in 10.0 mi Variable 5.8 mph - N/A   Overcast
7:53 PM 64.0 °F 61.0 °F 90% 30.12 in 10.0 mi Variable 6.9 mph - 0.00 in   Overcast
8:53 PM 64.0 °F 61.0 °F 90% 30.12 in 10.0 mi SSW 4.6 mph - 0.00 in   Overcast
9:53 PM 64.0 °F 61.0 °F 90% 30.12 in 10.0 mi SW 10.4 mph - N/A   Overcast
10:12 PM 63.0 °F 61.0 °F 93% 30.13 in 5.0 mi SW 8.1 mph - 0.04 in Rain Light Rain
10:24 PM 63.0 °F 61.0 °F 93% 30.13 in 8.0 mi SW 5.8 mph - 0.04 in   Overcast
10:53 PM 63.0 °F 61.0 °F 93% 30.12 in 6.0 mi SW 6.9 mph - 0.04 in Rain Light Rain
11:36 PM 63.0 °F 61.0 °F 93% 30.12 in 5.0 mi SW 6.9 mph - 0.03 in   Overcast
11:43 PM 63.0 °F 61.0 °F 93% 30.11 in 6.0 mi SW 8.1 mph - 0.03 in   Overcast
11:46 PM 63.0 °F 61.0 °F 93% 30.11 in 7.0 mi SW 8.1 mph - 0.03 in   Overcast
11:53 PM 63.0 °F 60.1 °F 90% 30.10 in 9.0 mi SW 8.1 mph - 0.03 in   Overcast